{"data":{"norad_id":63048,"intl_designator":"2025-034V","name":"STARLINK-32790","alt_names":[],"object_type":"PAYLOAD","status":"ACTIVE","operator":null,"country":"US","launch_date":"2025-02-18","launch_site_code":"AFETR","launch_vehicle":null,"mission":null,"orbit_class":"UNKNOWN","rcs_meters":null,"size_class":null,"mass_kg":null,"dimensions":null,"purposes":["comms"],"wikipedia_slug":null,"has_3d_model":false,"image_url":null,"decayed_at":null,"tle_current":{"epoch":"2026-05-25T04:00:03.998880Z","epoch_age_seconds":60974,"freshness":"FRESH","line1":"1 63048U 25034V   26145.16671295  .00112160  00000+0  32984-2 0  9998","line2":"2 63048  53.1589 263.1295 0001554  16.8722 300.2514 15.34236567  5656","mean_motion":15.34236567,"eccentricity":0.0001554,"inclination_deg":53.1589,"raan_deg":263.1295,"arg_perigee_deg":16.8722,"mean_anomaly_deg":300.2514,"bstar":0.0032984,"rev_number":565,"period_min":93.857755118934,"perigee_km":462.12589857849,"apogee_km":464.25218271193,"semimajor_km":6841.3260406452,"source":"CELESTRAK","updated_at":"2026-05-25T13:38:19.869905Z"}}}